EHI
32 26 16 7 2 0 0 0 0 0 0 0 0 0 0 0 0 0 0 0 1 3 2 1 0 0 0 0 0 0 0 0 0 1 2 2 1 0 0 0 0 0 0 0 0 0 0 0 0
22 15 8 4 1 0 0 0 0 0 0 0 0 0 0 0 0 0 0 0 1 3 2 1 0 0 0 0 0 0 0 0 0 0 1 1 0 0 0 0 0 0 0 0 0 0 0 0 0
14 7 2 1 1 0 0 0 0 0 0 0 0 0 0 0 0 0 0 0 1 3 3 2 0 0 0 0 0 0 0 0 0 0 0 0 0 0 0 0 0 0 0 0 0 0 0 0 0
11 6 2 1 0 0 0 0 0 0 0 0 0 0 0 0 0 0 0 0 1 3 2 1 0 0 0 0 0 0 0 0 0 0 0 0 0 0 0 0 0 0 0 0 0 0 0 0 0
8 4 1 0 0 0 0 0 0 0 0 0 0 1 1 1 0 0 0 0 1 2 1 0 0 0 0 0 0 0 0 0 0 0 0 0 0 0 0 0 0 0 0 0 0 0 0 0 0
4 2 0 0 0 0 0 0 0 0 0 0 0 1 2 2 0 0 0 0 1 2 1 0 0 0 0 0 0 0 0 0 0 0 0 0 0 0 0 0 0 0 0 0 0 0 0 0 0
1 0 0 0 0 0 0 0 0 0 0 0 0 1 2 2 0 0 0 0 1 2 1 1 1 1 0 0 0 0 0 0 0 0 0 0 0 0 0 0 0 0 0 0 0 0 0 0 0
0 0 0 0 0 0 0 0 0 0 0 0 0 1 2 1 1 1 2 1 2 2 1 1 2 2 1 0 0 0 0 0 0 0 0 0 0 0 0 0 0 0 0 0 0 0 0 0 0
0 0 0 0 0 0 0 0 0 0 0 0 0 1 1 1 1 2 3 2 2 1 1 1 1 2 1 0 0 0 0 0 0 0 0 0 0 0 0 0 0 0 0 0 0 0 0 0 0
0 0 0 0 0 0 0 0 0 0 0 0 0 1 2 1 1 2 3 2 1 1 0 0 0 1 1 0 0 0 0 0 0 0 0 0 0 0 0 0 0 0 0 0 0 0 0 0 0
0 0 0 0 0 0 0 0 0 0 0 0 0 1 2 2 1 2 3 3 2 1 0 0 0 0 0 0 0 0 0 1 0 0 0 0 0 0 0 0 0 0 0 0 0 0 0 0 0
0 0 0 0 0 0 0 0 0 0 0 0 0 1 2 2 1 1 3 4 3 2 2 1 1 0 0 0 0 0 0 0 0 0 0 0 0 0 0 0 0 0 0 0 0 0 0 0 0
0 0 0 0 0 0 0 0 0 0 0 0 0 1 2 2 1 2 4 5 4 3 3 2 1 0 0 0 0 0 0 0 0 0 0 0 0 0 0 0 0 0 0 0 0 0 0 0 0
0 0 0 0 0 0 0 0 0 0 0 0 0 0 1 1 1 2 4 4 3 3 3 3 2 0 0 1 1 1 1 0 0 0 0 0 0 0 0 0 0 0 0 0 0 0 0 0 0
0 0 0 0 0 0 0 0 0 0 0 0 0 0 0 1 2 3 3 3 3 3 3 2 1 1 0 1 2 2 2 1 0 0 1 1 1 0 0 0 0 0 0 0 0 0 0 0 0
0 0 0 0 0 0 0 0 0 0 0 0 0 0 0 1 2 3 3 3 3 3 3 2 2 2 1 1 2 3 3 2 1 0 1 2 1 0 1 1 1 0 0 0 0 0 0 0 0
0 0 0 0 0 0 0 0 0 0 0 0 0 0 0 0 1 1 3 3 2 2 2 2 2 3 2 1 2 4 4 2 0 0 2 2 1 0 1 2 1 0 1 1 1 0 0 0 0
0 0 0 0 0 0 0 0 0 0 0 0 0 0 0 0 0 1 2 2 1 1 2 2 2 2 3 3 4 5 4 2 1 2 2 2 1 0 1 2 1 1 1 2 2 1 0 0 0
0 0 0 0 0 0 0 0 0 1 0 0 0 0 0 0 0 1 1 1 0 0 1 2 2 2 4 7 8 8 6 5 5 4 2 1 1 0 0 1 1 1 2 3 2 1 0 0 0
0 0 0 0 0 0 0 0 0 1 1 0 0 0 0 0 0 0 0 0 0 0 1 2 2 2 4 8 10 10 10 9 8 6 4 2 2 1 0 1 2 3 2 2 1 1 0 0 0
0 0 0 0 0 0 1 0 1 2 2 1 0 0 0 0 0 1 1 1 1 1 1 2 1 2 4 6 9 11 11 10 8 7 5 3 2 1 1 2 3 3 2 1 1 1 1 0 0
0 0 0 0 0 0 0 0 1 3 3 1 0 0 0 1 1 3 4 4 4 3 2 2 2 3 4 6 8 9 9 8 7 7 5 3 1 1 2 2 2 2 1 0 1 2 1 0 0
0 0 0 0 0 0 0 0 1 2 2 1 1 1 1 2 3 6 7 7 6 6 5 5 6 7 7 6 6 6 5 5 5 5 4 3 2 3 3 3 2 2 1 0 0 1 1 0 0
0 0 0 0 0 0 0 0 0 1 1 1 1 2 2 2 3 5 7 6 6 7 8 9 11 11 9 7 5 3 3 3 3 3 3 3 3 3 3 2 1 1 0 0 0 0 0 0 0
0 0 0 0 0 0 0 0 0 0 0 0 1 2 2 1 1 4 6 6 7 9 10 10 11 11 9 7 4 2 2 2 2 1 1 3 3 3 2 1 0 0 0 0 0 0 0 0 0
0 0 0 0 0 0 0 0 0 0 0 0 0 1 1 0 1 3 6 8 10 12 11 10 10 10 9 6 3 2 1 1 1 0 1 2 2 1 1 0 0 0 0 0 0 0 0 0 0
0 0 0 0 0 0 0 0 0 0 0 0 0 0 0 0 1 3 5 8 11 12 11 10 9 9 8 6 3 1 2 1 0 0 0 1 1 0 0 0 0 0 0 0 0 0 0 0 0
0 0 0 0 0 0 0 0 0 0 0 0 0 0 0 0 1 2 4 7 10 10 9 8 8 7 6 5 4 2 3 3 2 1 0 0 0 0 0 0 0 0 0 0 0 0 0 0 0
0 0 0 0 0 0 0 0 0 0 0 0 1 1 1 1 0 1 3 6 8 8 7 7 7 6 5 5 5 2 2 4 4 2 1 0 0 0 0 0 0 0 0 0 0 0 0 0 0
0 0 0 0 0 0 0 0 0 0 0 1 2 3 4 3 1 1 3 6 7 7 7 6 6 6 5 5 5 2 2 4 5 3 2 1 0 0 0 0 0 0 0 0 0 0 0 0 0
Wind_Speed
9 11 7 2 2 1 6 7 8 7 7 8 9 10 12 12 9 8 3 3 7 9 9 9 10 10 10 10 10 11 10 11 11 11 11 11 10 10 10 10 10 11 11 11 11 11 10 10 9
10 6 4 2 1 3 6 6 8 8 7 6 8 11 12 12 11 8 4 3 8 10 10 10 10 10 10 10 10 10 10 11 11 11 11 11 11 11 10 10 10 11 11 11 10 10 10 10 9
11 7 3 1 3 4 6 7 7 8 6 6 8 10 9 8 8 6 4 4 8 10 11 9 10 10 10 10 11 11 10 10 10 10 10 10 10 11 11 11 10 10 11 11 11 11 10 10 9
5 3 2 1 8 8 7 7 6 8 7 8 8 9 10 9 7 7 6 7 9 10 10 9 10 10 10 10 10 10 10 10 10 10 10 10 10 10 11 11 11 11 11 11 11 11 10 10 9
3 2 1 4 8 7 7 7 7 7 8 9 10 11 10 9 9 8 7 8 8 9 9 9 10 10 10 10 10 10 9 9 9 9 9 10 10 10 11 11 11 11 11 11 10 10 10 9 8
3 1 1 4 7 6 5 5 6 8 8 8 10 11 9 8 7 6 7 7 8 8 8 9 9 10 10 10 9 9 9 9 9 9 8 9 9 9 9 9 9 10 10 9 9 9 9 9 8
2 1 2 6 5 5 5 5 7 7 7 6 7 9 8 7 5 6 7 6 7 7 7 7 7 8 9 9 8 8 8 8 8 8 7 7 8 8 8 9 8 8 8 8 8 8 8 7 7
2 1 2 4 4 4 5 5 7 6 6 6 6 7 7 7 6 6 7 6 6 5 5 5 6 6 6 6 7 7 7 6 6 5 5 5 5 6 7 8 7 7 7 7 7 6 6 5 4
3 1 1 2 4 5 5 5 6 6 7 8 9 11 10 9 8 6 6 5 5 4 4 4 4 5 5 5 6 5 5 5 4 3 3 2 2 3 4 6 7 6 6 5 5 4 3 2 2
1 1 2 2 5 6 5 5 4 6 7 8 10 11 10 8 7 6 6 6 5 4 4 4 3 3 4 3 4 2 3 3 2 1 2 1 2 2 5 6 5 5 4 3 2 1 1 0 0
1 2 2 3 5 5 5 5 4 5 5 7 8 10 9 7 5 4 4 5 5 5 4 4 3 3 4 3 2 1 1 1 1 1 2 2 2 2 3 2 2 2 2 1 1 1 1 1 1
2 2 3 4 5 4 4 4 4 5 5 7 8 9 8 7 5 4 4 5 5 5 4 3 3 4 3 3 2 1 1 1 1 1 2 2 1 1 1 1 2 1 1 0 0 0 1 2 2
3 3 4 5 5 4 4 4 4 6 6 7 8 8 8 6 5 4 4 6 5 5 4 3 3 4 3 2 1 2 1 2 2 2 2 2 1 1 1 1 2 1 1 1 1 2 3 3 3
2 4 4 5 4 4 5 5 3 5 6 7 7 7 6 5 5 5 4 5 5 4 4 4 3 3 3 3 1 2 2 2 2 1 2 2 2 1 2 2 2 2 2 1 2 3 3 3 3
4 4 5 6 6 5 5 4 5 6 7 7 7 7 6 5 4 4 4 4 5 4 4 4 3 3 3 3 3 3 2 2 2 2 2 2 2 2 2 2 2 2 2 2 2 3 3 2 3
7 6 5 6 7 6 5 4 6 6 7 7 6 6 6 5 5 4 5 4 4 4 4 4 3 4 5 4 3 2 3 3 2 2 2 2 2 3 3 2 2 1 2 2 2 2 3 3 3
7 7 6 7 7 6 6 3 6 7 7 7 6 6 7 6 6 5 5 5 4 3 4 5 4 4 4 3 3 3 3 3 2 2 3 3 3 3 3 2 2 2 3 2 2 2 2 2 2
6 5 6 6 8 7 6 5 8 9 8 7 7 6 6 6 6 6 5 5 4 3 4 5 4 3 4 2 2 3 3 3 3 3 3 4 3 3 3 2 2 2 2 2 2 3 2 2 1
7 5 5 3 5 5 6 6 7 9 8 6 6 6 6 7 6 6 7 5 4 3 2 4 4 3 3 2 2 2 2 2 3 3 3 3 4 4 3 2 2 2 2 2 2 2 2 1 1
7 7 5 3 4 4 5 6 6 8 9 6 5 5 6 6 7 7 7 6 4 3 3 4 4 4 4 2 2 2 2 2 2 2 3 3 3 4 3 3 2 2 2 2 2 2 1 1 1
8 7 5 4 3 6 5 6 7 8 8 8 6 4 5 5 6 7 7 6 4 3 2 3 4 4 4 3 2 2 2 2 2 2 2 2 3 3 2 2 2 2 1 1 1 1 1 0 1
6 4 5 5 5 5 6 5 7 9 8 8 6 4 4 5 6 7 7 6 5 3 2 3 4 4 4 3 3 3 2 2 1 1 1 2 3 3 3 2 2 2 1 1 1 1 1 1 1
4 4 6 7 7 8 8 7 4 9 8 8 7 6 4 6 7 7 7 6 5 4 3 3 4 5 4 4 4 3 2 1 1 1 2 2 2 2 3 3 2 2 1 1 1 2 1 1 1
4 5 8 8 6 8 9 7 3 6 7 8 8 7 6 6 7 7 7 6 5 5 4 4 4 4 4 4 3 3 3 2 2 2 1 1 1 2 2 2 2 2 2 2 1 1 1 0 1
6 5 3 4 5 5 4 5 1 7 6 6 7 7 6 6 6 6 7 6 6 6 4 4 4 4 4 3 3 3 3 2 2 1 1 1 1 1 1 2 1 1 1 1 1 1 1 0 0
6 7 5 4 3 2 2 3 4 9 7 6 6 7 7 6 6 6 7 6 5 5 4 4 4 4 3 2 2 2 2 2 1 1 2 1 1 0 1 1 1 1 1 1 1 1 1 1 1
6 6 6 7 9 6 3 3 7 7 7 6 6 7 7 7 6 6 7 6 6 6 4 3 3 3 3 2 2 2 2 2 2 2 2 1 1 1 1 1 1 1 1 1 1 1 1 1 1
6 6 4 4 4 5 4 3 4 9 8 6 6 6 6 6 7 7 6 6 6 5 4 3 3 3 3 3 2 2 2 2 2 2 2 1 1 1 1 1 1 1 1 1 1 1 1 1 0
6 7 6 4 5 4 3 1 3 6 7 6 5 6 6 5 6 6 6 6 6 6 5 4 3 3 3 3 2 2 2 2 2 2 2 1 1 1 1 1 1 1 1 1 1 1 1 1 0
4 6 7 5 5 5 4 0 5 5 6 6 5 5 5 5 5 5 5 6 5 5 5 4 4 3 3 2 2 2 2 2 2 2 2 1 1 1 1 1 1 1 1 1 1 0 0 0 0
Wind_Direction
263 249 249 253 263 116 73 68 68 63 64 54 51 64 65 54 52 83 102 67 87 92 91 79 66 68 66 64 64 63 61 62 62 62 63 64 65 66 68 68 68 67 69 71 72 71 73 74 76
276 274 273 247 246 95 78 79 74 66 74 80 70 69 72 66 72 92 96 70 85 91 87 79 72 72 70 66 66 67 65 65 64 63 63 64 65 64 66 68 69 68 69 70 75 74 74 78 81
268 269 267 267 45 72 87 86 91 84 75 76 74 63 57 65 76 88 106 97 86 89 90 85 78 76 74 71 70 70 68 67 67 67 67 66 65 65 64 64 68 72 72 71 74 75 73 75 79
269 260 248 78 75 71 88 97 100 95 79 72 79 76 68 56 74 100 113 99 92 94 97 93 84 80 78 76 73 72 71 70 70 71 70 68 67 65 64 64 67 69 71 70 70 70 69 69 72
240 261 130 91 83 77 75 84 91 89 82 74 81 88 84 75 88 106 104 97 95 96 102 106 95 90 85 80 75 73 73 72 72 74 75 71 70 69 66 67 69 70 70 71 71 68 67 67 62
266 263 121 102 96 87 84 87 87 85 83 84 98 100 93 98 96 104 101 99 101 104 108 115 110 102 94 87 81 78 77 76 74 75 76 77 76 75 73 71 72 71 71 73 72 68 67 65 61
277 294 117 109 109 98 79 69 77 80 73 70 86 100 107 101 105 108 103 97 100 110 115 121 131 121 109 101 94 90 86 83 81 81 83 85 84 82 80 78 75 73 72 73 74 73 69 66 59
279 307 107 115 123 103 95 86 79 83 80 66 67 97 114 122 123 113 109 104 99 104 115 123 125 129 130 121 112 111 104 98 96 93 99 101 101 96 91 87 81 79 79 79 77 75 72 65 56
276 221 127 107 122 112 111 101 94 94 89 78 71 86 114 131 128 122 116 106 101 100 102 102 113 124 123 125 129 137 131 126 130 142 142 131 123 112 104 97 99 94 91 92 90 87 83 69 44
214 74 97 92 116 125 125 118 127 117 102 91 89 98 114 126 128 130 129 129 125 118 108 99 97 104 107 107 128 155 146 145 159 154 147 150 118 100 103 118 119 113 110 111 120 124 148 210 19
115 124 118 89 101 120 130 130 123 121 109 111 116 120 128 125 122 128 131 123 119 111 95 95 95 87 90 88 108 95 92 118 131 115 105 101 108 122 120 141 133 144 145 139 152 216 232 93 62
146 114 128 115 114 131 131 121 110 95 102 114 122 128 129 128 135 132 119 108 104 101 93 86 84 85 77 80 84 87 65 86 73 61 88 83 71 77 103 124 129 127 120 115 94 302 69 67 61
160 140 126 124 142 142 137 123 110 111 112 117 124 128 132 134 139 128 119 115 107 104 103 84 72 85 87 77 66 96 76 59 57 34 57 77 79 79 94 84 77 79 80 62 35 35 44 42 46
140 144 145 146 151 158 149 139 147 137 141 139 138 138 140 143 138 129 116 107 110 109 107 104 96 89 91 90 68 54 56 60 69 41 39 58 65 53 62 71 72 59 55 57 61 56 49 47 46
170 176 174 181 186 179 172 172 176 155 154 155 153 145 143 142 137 126 119 115 113 112 109 107 105 98 93 88 77 71 58 49 52 46 34 45 55 52 54 57 58 56 42 47 51 47 43 47 49
209 212 209 194 192 183 205 204 171 162 168 163 161 155 151 149 145 132 117 105 105 111 105 98 86 78 71 66 61 65 62 54 42 38 26 38 55 63 53 52 47 55 65 56 60 55 44 37 40
230 225 214 184 194 185 208 193 170 178 186 176 175 171 162 161 150 135 124 115 102 100 105 104 87 80 79 78 79 60 64 57 44 38 32 25 34 55 68 53 42 49 55 53 65 66 59 53 42
243 230 223 192 184 197 212 197 175 180 195 191 180 178 167 159 150 140 125 113 105 94 97 101 100 92 86 68 75 69 55 48 45 38 36 25 30 45 72 70 52 62 66 53 61 71 57 59 22
280 269 254 205 170 206 223 215 190 178 192 196 188 183 174 161 146 135 125 118 116 108 107 103 112 103 93 78 63 70 62 47 41 35 28 19 25 28 43 58 55 66 72 74 72 77 77 53 42
269 271 267 209 188 225 238 233 205 183 188 195 202 189 175 159 149 137 127 128 131 128 126 108 102 98 89 79 83 94 90 79 71 36 27 18 28 29 30 48 48 57 62 62 72 81 62 6 31
247 258 263 274 236 237 252 246 216 187 183 186 201 192 173 163 151 139 135 137 136 133 137 115 105 98 94 88 73 69 66 55 49 37 23 8 26 36 37 43 52 44 62 90 95 96 101 33 323
257 270 277 265 256 254 231 251 214 187 180 180 182 190 170 151 139 137 138 135 137 134 134 120 107 101 97 95 87 90 85 74 49 44 32 19 26 32 27 40 54 51 37 63 70 78 76 77 334
280 299 276 260 256 265 244 252 215 167 176 184 181 179 167 144 141 140 135 130 126 125 127 109 104 99 94 94 97 95 90 91 75 57 48 40 32 28 32 31 43 50 45 47 53 68 60 48 39
281 265 259 254 253 255 242 233 233 168 176 178 171 170 160 143 137 132 128 128 123 117 115 109 106 101 106 108 112 108 102 95 81 54 53 47 43 32 43 40 27 31 41 41 47 55 74 58 37
229 249 252 225 216 237 219 222 184 130 142 155 160 158 150 140 134 131 131 135 131 127 128 123 116 109 111 114 115 117 118 120 114 91 71 54 48 34 32 39 19 12 21 33 44 41 46 59 89
230 239 260 277 267 279 224 224 115 115 119 132 141 145 142 137 134 137 135 137 134 128 128 127 123 124 122 121 115 111 111 102 99 89 78 62 57 43 29 14 13 5 5 37 54 27 19 44 25
255 247 272 286 291 286 234 159 124 132 134 133 139 138 144 145 143 142 138 143 138 134 133 136 140 136 133 141 134 114 104 94 96 96 83 72 41 23 28 3 8 1 342 20 100 79 9 61 42
266 296 285 263 279 279 267 239 165 157 146 144 146 143 143 145 147 144 141 141 137 135 138 146 148 150 146 151 150 113 106 111 101 97 91 84 67 28 1 1 4 353 353 12 56 98 79 72 340
219 240 259 274 268 275 287 24 91 137 143 148 143 140 144 145 144 144 145 145 143 143 152 163 162 152 153 149 142 136 133 128 109 95 91 69 68 63 18 357 345 347 6 359 56 47 70 86 305
240 248 253 258 275 281 283 298 104 109 118 129 132 132 135 138 136 138 141 143 147 153 159 163 165 160 157 150 151 150 143 138 132 124 118 97 46 19 14 4 1 0 358 348 64 353 19 180 257